Regional Weather Roundup
Issued by NWS

Home | Current Version | Previous Version | Text Only | Print | Product List | Glossary Off
Versions: 1 2 3 4 5 6 7 8 9 10 11 12 13 14 15 16 17 18 19 20 21 22 23 24 25 26 27 28 29 30 31 32 33 34 35 36 37 38 39 40 41 42 43 44 45 46 47 48 49 50

000
ASUS43 KLSX 250507
RWRMO

WEATHER SUMMARY FOR MISSOURI
NATIONAL WEATHER SERVICE SPRINGFIELD MO
1200 AM CDT FRI APR 25 2014

NOTE: "FAIR" INDICATES FEW OR NO CLOUDS BELOW 12,000 FEET WITH NO
       SIGNIFICANT WEATHER AND/OR OBSTRUCTIONS TO VISIBILITY.
       CURRENT SKY AND/OR WEATHER CONDITIONS ARE NOT AVAILABLE FOR
       CHILLICOTHE AND FARMINGTON.

MOZ001>031-035>038-043-044-053-054-250600-
...NORTHERN AND WESTERN MISSOURI...

CITY           SKY/WX    TMP DP  RH WIND       PRES   REMARKS
KANSAS CTY INT CLEAR     51  44  77 W6        29.85S
KANSAS C DTWN  CLEAR     51  45  79 SW6       29.85R
LEE`S SUMMIT   CLEAR     50  45  83 W5        29.86R
ST JOSEPH      CLEAR     47  45  93 CALM      29.85S
CHILLICOTHE      N/A     53  45  74 NW8       29.82R
KIRKSVILLE     CLOUDY    50  46  86 NW12      29.78R

$$
MOZ066>068-077>081-088>096-101>105-250600-
...SOUTHWEST MISSOURI...

CITY           SKY/WX    TMP DP  RH WIND       PRES   REMARKS
SPRINGFIELD    PTCLDY    53  47  79 NW9       29.86R
JOPLIN         CLEAR     50  44  80 W5        29.91R

$$
MOZ032>034-039>042-045>050-055>058-069>072-250600-
...CENTRAL MISSOURI...

CITY           SKY/WX    TMP DP  RH WIND       PRES   REMARKS
COLUMBIA       CLOUDY    52  47  83 NW14      29.77R
JEFFERSON CITY CLOUDY    54  48  80 NW10      29.78R
ROLLA          LGT RAIN  53  51  93 W14       29.75R
SEDALIA        CLOUDY    53  47  79 W10       29.82R
WHITEMAN AFB   CLEAR     53  43  69 W9        29.83R
OSAGE BEACH    CLOUDY    52  46  82 W8        29.83R

$$
MOZ051-052-059>065-250600-
...EAST CENTRAL MISSOURI...

CITY           SKY/WX    TMP DP  RH WIND       PRES   REMARKS
ST LOUIS INTL  LGT RAIN  60  56  86 W8        29.68S
SPIRIT OF STL  LGT RAIN N/A N/A N/A NW13      29.69R
ST CHARLES     LGT RAIN  59  54  83 NW16      29.67S

$$
MOZ072>076-082>087-097>100-106>115-250600-
...SOUTH CENTRAL AND SOUTHEAST MISSOURI...

CITY           SKY/WX    TMP DP  RH WIND       PRES   REMARKS
CAPE GIRARDEAU CLOUDY    59  56  89 CALM      29.69F
FARMINGTON     CLOUDY    55  54  94 W6        29.72R
POPLAR BLUFF   CLOUDY    60  53  77 NW5       29.70F
WEST PLAINS    CLOUDY    56  50  80 NW14G25   29.79R

$$



USA.gov is the U.S. government's official web portal to all federal, state and local government web resources and services.